Reflectivity
-20 -0 -20 -15 -20 -20 -20 -20 -20 -20 -20 -20 -20 -20 -20 4 2 -6 -20 -20 13 -7 9 9 13 4 1 -0 -20 -20 -20 -20 -20 -20 -20 -17 -5 -9 22 9 22 -2 2
-19 -5 -20 -20 -20 -20 -20 -20 -20 -20 -20 -14 2 14 -6 12 5 -20 -20 -20 4 16 8 -11 10 -2 5 -20 -20 -20 -20 -20 -20 -20 -20 8 15 20 0 -17 -18 -20 -18
-20 -20 -20 -20 -18 -20 -20 -20 -20 -20 -20 -20 -20 1 -19 -19 -20 -20 -13 -20 -2 14 11 -20 5 12 7 -20 -20 -20 -20 -20 -20 -20 13 17 4 15 -16 -20 1 -15 17
-20 -20 -20 -14 -2 -20 -19 -20 -20 -20 -20 -20 -20 -20 -19 -7 -18 -20 -4 -20 -1 -0 -20 -20 -20 -20 -20 -20 -20 -20 -20 -20 16 -11 -9 15 8 12 -4 -6 -20 8 3
-1 -20 -20 -20 -20 -20 -12 -20 -20 -20 -20 -14 -20 3 -14 -5 -20 15 -5 5 -20 -20 -15 -2 -20 -20 -20 -20 -20 -20 -20 -2 17 -1 1 -20 6 8 -6 -19 -20 -20 -20
-12 -20 -20 -20 -20 -20 -20 -20 -20 -20 -20 -20 -20 -20 -20 -20 -20 -19 -19 5 -20 -20 -20 -8 4 -20 -20 -9 16 -20 -20 -19 20 17 -19 -20 -20 3 16 -20 -20 -20 -20
0 -19 -20 -20 -15 -8 -20 -17 -20 -11 -20 -20 -20 -20 -20 -20 -20 -20 -4 -7 -9 -20 -20 -20 8 16 0 12 0 -10 -20 13 15 6 -0 5 -19 5 -7 -20 -5 -20 -20
4 -1 -11 1 -20 -20 -20 -16 -8 7 -20 -15 -20 -20 -20 -20 -20 -20 -20 -20 11 -20 -20 -20 17 10 6 12 11 9 -9 1 13 -12 -0 -6 6 15 18 -16 -20 -20 17
-4 -9 6 -0 -20 -20 -20 2 -13 -14 -20 -11 -20 -20 -20 -20 -20 -20 -20 -20 3 -20 -20 -20 -14 5 13 10 10 6 -20 -1 3 -20 -20 -20 -16 17 12 -16 0 -20 6
7 4 -1 -20 -20 -20 -20 -20 -20 -20 -20 17 -20 -20 -20 -20 -20 -20 -20 -20 -20 -6 -20 -20 4 10 -11 -17 4 -20 -20 -20 -20 -20 -20 -20 -19 16 15 19 9 -17 -3
6 2 -3 -20 -20 -20 -20 -20 -20 -20 5 -1 -20 -20 -20 -20 -20 -20 -20 -20 -20 -19 5 -20 -4 16 1 -3 -18 -20 -20 -20 -20 -20 -20 -9 -20 19 19 12 14 16 16
5 -2 -20 -20 -20 -20 -20 13 -12 -20 -10 -20 -20 -20 -20 -20 -20 -20 -20 -20 -20 -18 8 -20 4 13 -17 -20 -20 -20 -20 -20 -20 -20 -10 -1 13 17 16 15 17 18 18
-20 -20 -20 -20 -20 -20 3 -12 -20 -20 3 -20 -20 -20 -20 -20 -20 -20 -20 -20 -20 3 -20 -20 -20 -19 -20 -20 -20 -20 -20 -20 -20 -20 -19 4 14 18 -11 11 16 16 18
-20 -20 -20 -20 -20 -20 -20 -20 -20 -20 -20 -20 -20 -20 -20 -20 -20 -20 -20 -20 -20 -20 -20 -20 -20 -20 -20 -20 -20 -20 -20 -20 -20 -20 -3 7 9 18 14 16 17 16 16
-20 -20 -20 -20 -20 -20 -20 -20 -20 -20 -20 -20 -20 -20 -20 -20 -20 -20 -20 -20 -20 -20 -20 -20 -20 -20 -20 -20 -20 -20 -20 -20 -20 -20 -11 15 6 18 10 12 12 13 19
-20 -20 -20 -7 -12 -20 -20 -20 -20 -20 -20 -20 -20 -20 -20 -20 -20 -20 -20 -20 -20 -20 -20 -20 -20 -20 -20 -20 -20 -20 -20 -20 -20 -20 -20 -6 18 3 18 18 13 13 16
-20 -20 -20 5 11 11 -20 -20 -20 -20 -20 -20 -20 -20 -20 -20 -20 -20 -20 -20 -20 -20 -20 -20 -20 -20 -20 -20 -20 -20 -20 -20 -20 -20 -20 6 1 11 17 1 13 11 13
-20 -20 8 8 13 11 16 -20 -20 -20 -20 -20 -20 -20 -20 -20 -20 -20 -20 -20 -20 -20 -20 -20 -20 -20 -20 -20 -20 -20 -20 -20 13 -20 -20 -20 -16 -18 13 16 15 18 11
-20 -20 8 10 10 -14 19 16 -20 -20 -5 10 -20 -20 -20 -20 -20 -20 -8 -19 -20 -20 -20 -20 -20 -20 -20 -20 -20 -20 -20 -20 -19 2 13 -20 6 12 4 -4 -20 -20 11
-19 -20 -20 -20 -17 -11 3 -17 -16 12 12 14 16 6 -20 -20 -7 9 1 -14 -16 -20 -20 -20 -20 -20 -20 -20 -20 -20 -20 -20 -20 -20 -20 -1 -18 15 12 -20 -20 -20 3
-20 -20 -20 -20 -20 3 15 4 -20 10 19 -20 3 16 -20 -20 -20 -7 -4 -4 -13 5 2 -17 -20 -20 -20 -20 -20 -20 -20 -20 -20 -20 -20 -17 -20 13 -20 -20 -20 -20 -20
-20 -20 -20 -20 -20 -20 -20 -20 -20 11 -18 -20 -2 -15 18 -20 -20 14 -2 -20 -20 -20 -20 -19 -3 -0 -16 -20 -20 -20 -20 -20 -20 -20 -20 -20 -20 -20 -18 -20 -20 -20 -20
-20 -20 -20 -20 -20 -20 -20 -20 -20 -20 -20 -20 -20 -20 10 -3 -20 -20 11 3 -11 -20 -18 -9 -14 7 -20 -20 -20 -20 -20 -20 -20 -20 -20 -20 -20 -20 -20 -20 -20 -20 -20
-20 -20 -20 -20 -20 -20 -20 -20 -20 -20 -20 -20 -20 -20 -20 -20 -20 -20 -20 -15 -13 -20 -20 -12 -8 -20 -20 13 -19 -20 -20 -20 -20 -20 -20 -20 -20 -20 -20 -20 -20 -20 -20
-20 -20 -20 -20 -20 -20 -20 -20 -20 -20 -20 -20 -20 -20 -20 -20 -20 -20 -20 -20 -20 -20 -20 -0 -12 -5 -20 -20 -5 -15 -20 -20 -20 -20 -20 -20 -20 -20 -20 -20 -20 -20 -20
-20 -20 -20 -20 -20 -20 -20 -20 -20 -20 -20 -20 -20 -20 -20 -20 -20 -20 -20 -1 -18 -1 -20 9 6 11 -15 -20 1 -18 1 -20 -19 -20 -20 -20 -20 -20 -20 -20 -20 -20 -20
Wind_Speed
13 14 20 20 20 19 19 19 19 18 18 18 18 18 18 20 20 18 17 16 14 16 18 18 19 20 21 21 20 21 21 20 19 19 16 15 18 19 22 22 19 16 21
17 15 21 21 19 18 18 19 18 18 17 17 17 18 19 19 19 17 16 15 14 18 18 18 18 19 20 20 19 20 20 19 18 16 14 14 19 21 23 22 20 18 20
18 15 16 20 19 19 17 19 18 19 17 17 16 17 18 18 18 17 16 17 16 17 18 18 16 18 19 18 18 18 18 17 15 14 12 7 13 22 22 21 20 20 19
16 15 15 20 20 19 18 18 17 17 17 18 16 15 17 17 17 14 17 16 17 19 18 17 17 16 15 15 15 16 17 16 13 12 6 6 10 20 20 18 18 17 15
16 14 14 20 19 20 18 18 18 18 17 16 16 15 16 16 16 13 16 17 20 19 18 17 15 12 13 13 15 18 16 14 14 11 6 6 8 16 19 17 16 17 15
14 14 17 20 19 19 19 18 17 18 19 18 17 16 15 15 16 13 16 15 19 18 15 15 14 16 17 18 18 18 16 15 13 8 7 11 8 17 16 15 16 15 16
14 12 14 19 19 18 19 18 18 19 19 19 18 18 17 16 16 13 12 18 17 18 15 15 16 19 15 18 19 19 18 17 10 9 8 9 11 17 15 16 15 15 15
15 14 14 17 19 18 18 17 18 18 20 19 18 18 18 17 15 14 15 10 15 18 15 14 17 18 16 17 18 17 17 16 9 9 8 8 17 15 14 14 14 14 13
14 12 12 12 14 15 15 16 17 18 19 19 18 16 17 15 13 14 14 13 12 15 14 12 13 13 13 15 16 16 16 14 9 6 7 5 15 13 13 14 13 13 12
12 13 12 11 11 10 10 13 13 14 17 17 16 13 13 12 12 12 11 11 14 10 13 12 10 14 15 16 16 15 14 13 7 6 4 6 16 14 12 12 12 12 12
11 14 13 11 10 9 8 10 12 13 13 14 14 12 10 5 6 8 6 12 14 8 12 12 14 14 13 14 14 13 11 4 5 4 3 12 16 12 14 13 11 12 12
16 13 12 12 10 9 7 6 6 7 8 9 8 7 4 5 5 6 6 8 10 8 10 13 13 12 8 4 4 7 4 5 4 4 2 13 12 12 13 12 12 11 11
17 11 11 11 9 9 7 5 4 4 5 6 8 6 5 4 4 3 3 3 3 5 4 6 6 4 6 5 4 4 4 4 3 3 5 13 11 12 12 12 10 9 10
14 12 11 10 10 7 6 5 7 6 5 5 5 7 6 3 4 4 3 4 4 3 4 4 3 5 6 5 6 6 5 4 3 3 3 9 10 10 10 12 10 10 10
14 12 12 11 10 8 9 6 6 6 6 6 6 6 6 5 5 4 4 4 3 3 3 3 3 5 4 5 5 6 5 4 6 3 2 8 10 10 9 8 9 9 9
12 13 12 12 11 10 8 9 7 6 6 7 5 6 7 5 6 5 4 4 4 3 3 4 4 3 3 4 5 5 5 5 5 4 3 3 8 7 8 9 10 9 9
11 12 12 12 11 12 11 8 7 7 7 7 6 6 8 8 7 6 5 4 4 3 5 3 1 3 3 3 5 5 4 4 5 3 2 3 3 7 5 8 5 7 8
9 12 9 9 10 11 10 8 6 6 6 7 7 5 7 8 9 7 5 4 4 4 4 3 1 1 2 4 4 4 4 3 5 3 2 3 2 3 4 9 8 7 7
7 8 9 8 10 9 8 7 7 8 6 6 6 6 7 8 7 7 6 6 6 4 4 4 1 1 3 3 4 4 4 4 5 3 2 3 4 4 2 6 6 3 5
7 6 4 4 7 7 5 5 4 4 4 6 7 8 9 8 10 7 5 6 6 5 4 4 3 2 3 4 4 3 3 2 4 2 5 1 2 4 2 3 2 2 4
10 10 8 6 4 4 3 3 3 4 3 3 4 8 9 7 9 8 6 7 6 7 6 7 3 3 2 3 5 3 4 4 1 2 3 4 3 3 3 1 0 1 2
8 8 8 7 6 2 2 2 3 3 2 2 4 7 8 7 8 8 8 8 9 5 6 7 5 3 2 3 3 3 1 3 2 1 1 3 5 3 3 3 2 2 1
10 8 7 7 6 4 1 3 3 4 3 2 2 2 4 7 9 9 10 8 8 8 8 9 8 7 4 4 3 4 2 4 0 1 2 2 3 4 4 4 4 4 3
8 6 6 6 7 7 6 2 4 4 4 3 4 3 4 6 7 7 9 10 9 7 8 8 6 5 5 7 1 1 2 5 3 1 2 3 3 4 5 5 5 5 5
8 7 6 6 8 7 7 4 2 2 2 2 2 5 5 4 6 7 8 9 9 7 8 9 8 6 6 6 4 3 1 2 2 3 2 3 1 4 4 4 5 5 6
9 9 8 8 8 8 6 6 3 5 4 4 3 4 4 3 4 6 6 8 9 8 9 8 9 9 7 6 7 3 4 4 3 3 2 3 3 3 4 4 4 4 5
Wind_Direction
155 155 148 141 137 131 123 119 115 112 111 108 108 108 111 109 106 104 100 100 98 114 95 96 92 90 85 85 84 83 81 81 82 81 75 82 88 82 79 74 72 68 66
144 153 150 144 142 137 131 124 119 115 114 110 107 105 113 108 108 99 97 105 91 101 105 95 90 94 95 90 90 87 85 79 79 73 71 79 88 83 75 67 65 67 65
145 150 150 147 146 138 137 128 132 127 123 114 113 107 105 107 106 101 115 105 100 89 89 91 96 94 95 95 92 89 82 81 80 71 72 83 86 82 77 71 67 65 64
144 148 150 150 148 143 141 138 136 128 125 121 124 124 115 111 100 115 105 108 101 92 97 100 100 100 105 103 93 89 84 79 77 71 51 54 79 78 73 73 73 73 71
145 148 152 153 151 146 143 144 142 134 129 125 121 122 125 118 114 109 109 116 106 102 101 102 105 108 118 104 100 94 84 75 71 76 63 61 74 77 77 71 65 72 73
143 146 152 154 152 148 147 149 145 135 131 126 123 122 122 118 115 104 106 108 105 105 104 97 85 101 110 116 109 96 82 75 66 63 67 81 73 76 78 74 77 77 70
140 141 150 154 154 151 152 152 147 141 137 134 131 131 127 127 119 110 103 105 113 103 103 92 93 93 96 96 90 90 83 73 67 60 65 71 77 74 79 81 77 84 86
140 142 149 155 152 152 155 153 151 147 142 141 136 133 133 131 123 114 100 104 110 109 108 96 92 101 98 97 98 96 82 79 64 64 71 70 78 73 77 82 75 78 77
141 141 145 148 147 148 151 151 151 149 146 144 136 134 134 130 126 120 111 123 103 112 106 91 95 98 109 99 95 87 80 77 68 61 66 72 65 86 79 85 76 86 86
140 142 143 144 145 146 148 142 142 144 149 146 134 129 130 128 122 121 122 136 115 112 112 102 98 93 93 102 98 90 82 77 69 55 49 87 89 84 77 81 82 78 79
146 150 148 142 141 138 141 145 139 138 144 130 127 125 118 119 116 114 124 141 132 132 124 115 103 86 92 103 103 92 87 77 72 67 54 89 87 88 88 78 67 88 82
159 156 153 150 144 139 142 130 123 124 130 134 134 129 116 123 124 123 120 115 124 130 123 118 103 91 83 81 77 75 88 100 94 93 89 79 93 92 88 85 72 70 82
165 160 155 149 145 141 137 126 122 124 127 129 136 132 125 117 108 107 101 79 90 79 105 101 95 89 90 109 87 83 90 83 74 68 82 93 96 91 99 99 90 75 78
159 160 154 151 149 139 136 138 142 140 134 138 140 136 131 120 120 122 114 110 106 100 108 116 128 113 104 102 121 110 93 94 91 75 101 103 103 107 93 94 88 87 77
162 161 160 153 152 147 146 143 148 150 148 144 145 141 138 137 138 134 133 126 120 107 122 132 142 116 108 108 120 116 110 89 99 83 75 100 108 107 109 107 114 87 82
159 165 160 164 159 152 153 157 160 156 146 149 152 153 148 142 150 147 146 146 139 140 138 147 152 122 115 120 124 115 119 101 97 65 85 99 105 106 112 95 96 98 77
165 157 166 166 160 160 161 160 158 164 153 157 166 156 157 158 160 155 153 151 161 154 138 103 75 85 99 105 120 122 116 126 105 95 82 103 86 100 118 99 111 105 94
138 161 160 162 159 159 160 160 155 160 161 162 168 163 160 165 167 158 156 162 159 147 138 135 143 74 138 135 147 138 132 130 115 136 129 93 68 107 99 115 100 102 106
151 146 156 161 159 152 152 158 160 162 163 164 159 171 171 170 162 163 170 162 157 150 145 156 126 127 133 126 144 133 153 138 142 153 123 132 95 79 72 45 97 81 122
60 60 102 124 143 138 129 120 117 152 164 164 175 176 179 180 171 164 157 159 161 167 162 161 137 88 118 144 93 69 25 148 141 190 158 107 145 127 100 82 45 13 128
44 58 44 78 38 130 128 134 138 170 171 165 173 177 175 176 177 166 159 157 166 183 180 166 135 148 87 139 105 30 34 9 127 189 155 158 183 135 133 121 86 17 348
53 43 46 47 35 42 24 104 137 149 153 151 176 174 174 169 166 165 169 173 172 163 162 166 146 124 104 208 126 109 90 341 340 49 212 190 173 151 165 185 212 237 275
40 30 35 27 29 37 132 88 54 59 54 91 93 127 179 173 175 176 176 179 180 175 174 181 168 165 156 192 236 136 146 211 105 355 255 256 224 173 180 195 216 225 226
27 24 30 29 33 29 13 164 161 168 158 200 172 167 174 179 179 177 179 176 179 186 178 179 186 169 140 179 169 58 51 137 170 238 293 263 229 243 211 193 196 214 211
27 21 22 29 42 26 23 8 210 195 165 146 155 174 178 183 184 184 184 176 188 181 183 186 170 162 182 169 168 147 126 68 79 128 195 241 284 237 225 219 203 189 202
27 28 29 24 28 20 20 21 343 225 184 160 164 180 188 180 185 192 187 189 187 190 178 183 179 189 194 183 191 180 163 167 187 153 141 231 217 251 229 221 211 218 200